College Park, MD

8:23 AM EDT on May 26, 2017 (GMT -0400)
College Park

Weather History for KCGS - November, 2013

Change the Weather History Date:

Monday, November 4, 2013

  Actual Average Record
Temperature  
Mean Temperature 39 °F -  
Max Temperature 46 °F 63 °F 83 °F (1974)
Min Temperature 32 °F 42 °F 19 °F (1951)
Degree Days  
Heating Degree Days 26    
Moisture  
Dew Point 24 °F    
Average Humidity 57    
Maximum Humidity 86    
Minimum Humidity 32    
Precipitation  
Precipitation 0.00 in - - ()
Sea Level Pressure  
Sea Level Pressure 30.59 in    
Wind  
Wind Speed 2 mph (NNE)    
Max Wind Speed 9 mph    
Max Gust Speed -    
Visibility 10 miles    
Events      
Averages and records for this station are not official NWS values.
T = Trace of Precipitation, MM = Missing Value Source: NWS Daily Summary

Daily Weather History Graph

Daily Weather History Graph

Search for Another Location

Airport or City:

Trip Planner

Search our weather history database for the weather conditions in past years. The results will help you decide how hot, cold, wet, or windy it might be!

Date:

Astronomy

Nov. 04, 2013 Rise Set
Actual Time 6:38 AM EST 5:03 PM EST
Civil Twilight 6:10 AM EST 5:31 PM EST
Nautical Twilight 5:38 AM EST 6:02 PM EST
Astronomical Twilight 5:07 AM EST 6:34 PM EST
Moon 7:46 AM EST (11/4) 6:06 PM EST (11/4)
Length of Visible Light 11h 20m
Length of Day
10h 24m
New Moon, 2% of the Moon is Illuminated
Nov 4
New Moon
Nov 10
First Quarter
Nov 17
Full
Nov 25
Last Quarter
Dec 2
New

Hourly Weather History & Observations

Time (EST) Temp. Windchill Dew Point Humidity Pressure Visibility Wind Dir Wind Speed Gust Speed Precip Events Conditions
12:00 AM 40.1 °F - 26.8 °F 59% 30.46 in 10.0 mi Calm Calm - N/A   Clear
12:20 AM 39.4 °F 37.2 °F 27.9 °F 63% 30.47 in 10.0 mi North 3.5 mph - N/A   Clear
12:40 AM 39.9 °F 37.8 °F 26.4 °F 59% 30.48 in 10.0 mi NNE 3.5 mph - N/A   Clear
1:00 AM 39.4 °F - 26.1 °F 59% 30.48 in 10.0 mi Calm Calm - N/A   Clear
1:20 AM 39.4 °F - 24.4 °F 55% 30.49 in 10.0 mi Calm Calm - N/A   Clear
1:40 AM 39.2 °F 34.2 °F 23.9 °F 54% 30.49 in 10.0 mi NNE 6.9 mph - N/A   Clear
2:00 AM 39.0 °F 34.0 °F 23.9 °F 55% 30.51 in 10.0 mi NNE 6.9 mph - N/A   Clear
2:20 AM 37.8 °F 34.2 °F 24.6 °F 59% 30.51 in 10.0 mi North 4.6 mph - N/A   Clear
2:40 AM 37.8 °F 34.2 °F 24.4 °F 59% 30.52 in 10.0 mi North 4.6 mph - N/A   Clear
2:55 AM 37.6 °F 34.0 °F 23.9 °F 58% 30.53 in 10.0 mi NNE 4.6 mph - N/A   Clear
3:20 AM 36.3 °F 33.7 °F 24.3 °F 62% 30.54 in 10.0 mi North 3.5 mph - N/A   Clear
3:40 AM 35.8 °F 33.0 °F 24.1 °F 62% 30.55 in 10.0 mi North 3.5 mph - N/A   Clear
4:00 AM 35.6 °F - 24.1 °F 63% 30.56 in 10.0 mi Calm Calm - N/A   Clear
4:20 AM 34.2 °F - 26.1 °F 72% 30.56 in 10.0 mi Calm Calm - N/A   Clear
4:40 AM 34.0 °F - 26.1 °F 73% 30.56 in 10.0 mi Calm Calm - N/A   Clear
5:00 AM 32.9 °F - 26.4 °F 77% 30.56 in 10.0 mi Calm Calm - N/A   Clear
5:20 AM 32.9 °F - 25.7 °F 75% 30.57 in 10.0 mi Calm Calm - N/A   Clear
5:40 AM 32.5 °F - 26.2 °F 78% 30.56 in 10.0 mi Calm Calm - N/A   Clear
6:00 AM 32.0 °F - 27.0 °F 82% 30.58 in 10.0 mi Calm Calm - N/A   Clear
6:20 AM 32.0 °F 28.7 °F 26.1 °F 79% 30.58 in 10.0 mi NNW 3.5 mph - N/A   Clear
6:40 AM 32.2 °F 28.9 °F 24.6 °F 74% 30.60 in 10.0 mi NNW 3.5 mph - N/A   Clear
7:00 AM 33.1 °F 30.0 °F 24.1 °F 70% 30.61 in 10.0 mi NNW 3.5 mph - N/A   Clear
7:20 AM 34.0 °F 31.0 °F 24.4 °F 68% 30.61 in 10.0 mi NNE 3.5 mph - N/A   Clear
7:40 AM 35.6 °F 30.7 °F 23.9 °F 62% 30.61 in 10.0 mi NNE 5.8 mph - N/A   Clear
8:00 AM 36.5 °F 30.3 °F 23.2 °F 59% 30.61 in 10.0 mi NNE 8.1 mph - N/A   Clear
8:20 AM 37.9 °F 32.7 °F 23.7 °F 57% 30.61 in 10.0 mi NNE 6.9 mph - N/A   Clear
8:35 AM 38.1 °F 33.7 °F 22.8 °F 54% 30.62 in 10.0 mi NNE 5.8 mph - N/A   Clear
9:00 AM 39.6 °F 33.5 °F 22.1 °F 50% 30.63 in 10.0 mi North 9.2 mph - N/A   Clear
9:20 AM 41.0 °F 37.1 °F 21.6 °F 46% 30.63 in 10.0 mi North 5.8 mph - N/A   Clear
9:40 AM 41.9 °F 39.0 °F 19.8 °F 41% 30.64 in 10.0 mi NE 4.6 mph - N/A   Clear
10:00 AM 42.8 °F 40.1 °F 19.4 °F 39% 30.64 in 10.0 mi North 4.6 mph - N/A   Clear
10:20 AM 43.5 °F 40.1 °F 19.2 °F 38% 30.64 in 10.0 mi North 5.8 mph - N/A   Clear
10:40 AM 43.7 °F 40.3 °F 19.2 °F 38% 30.63 in 10.0 mi ENE 5.8 mph - N/A   Clear
11:00 AM 44.6 °F 41.4 °F 19.4 °F 37% 30.64 in 10.0 mi ENE 5.8 mph - N/A   Clear
11:20 AM 46.0 °F 43.1 °F 21.0 °F 37% 30.63 in 10.0 mi NE 5.8 mph - N/A   Clear
11:40 AM 46.2 °F - 19.4 °F 34% 30.62 in 10.0 mi Calm Calm - N/A   Clear
12:00 PM 45.3 °F 44.0 °F 19.2 °F 35% 30.62 in 10.0 mi NW 3.5 mph - N/A   Clear
12:20 PM 46.8 °F - 19.8 °F 34% 30.61 in 10.0 mi ENE 4.6 mph - N/A   Clear
12:40 PM 45.9 °F 43.6 °F 18.5 °F 34% 30.61 in 10.0 mi North 4.6 mph - N/A   Clear
1:00 PM 46.6 °F - 19.4 °F 34% 30.61 in 10.0 mi North 4.6 mph - N/A   Clear
1:20 PM 45.7 °F - 18.3 °F 34% 30.60 in 10.0 mi Calm Calm - N/A   Clear
1:40 PM 46.6 °F - 19.4 °F 34% 30.59 in 10.0 mi NE 3.5 mph - N/A   Clear
2:00 PM 46.6 °F - 18.9 °F 33% 30.59 in 10.0 mi ENE 3.5 mph - N/A   Clear
2:20 PM 46.8 °F - 18.9 °F 33% 30.59 in 10.0 mi Calm Calm - N/A   Clear
2:40 PM 46.2 °F 43.3 °F 19.0 °F 34% 30.60 in 10.0 mi East 5.8 mph - N/A   Clear
2:55 PM 46.6 °F - 19.9 °F 35% 30.60 in 10.0 mi ESE 3.5 mph - N/A   Clear
3:20 PM 46.4 °F - 18.1 °F 32% 30.60 in 10.0 mi Calm Calm - N/A   Clear
3:40 PM 46.4 °F 45.2 °F 19.6 °F 34% 30.60 in 10.0 mi ENE 3.5 mph - N/A   Clear
4:00 PM 45.9 °F 44.6 °F 19.6 °F 35% 30.59 in 10.0 mi ENE 3.5 mph - N/A   Clear
4:20 PM 45.5 °F 44.2 °F 18.7 °F 34% 30.60 in 10.0 mi East 3.5 mph - N/A   Clear
4:40 PM 45.0 °F - 18.9 °F 35% 30.60 in 10.0 mi Calm Calm - N/A   Clear
5:00 PM 43.9 °F - 21.0 °F 40% 30.60 in 10.0 mi Calm Calm - N/A   Clear
5:20 PM 42.6 °F - 24.8 °F 49% 30.60 in 10.0 mi Calm Calm - N/A   Clear
5:40 PM 41.5 °F - 24.3 °F 50% 30.60 in 10.0 mi Calm Calm - N/A   Clear
6:00 PM 41.0 °F - 25.3 °F 54% 30.60 in 10.0 mi Calm Calm - N/A   Clear
6:20 PM 41.7 °F - 24.3 °F 50% 30.60 in 10.0 mi Calm Calm - N/A   Clear
6:40 PM 40.1 °F - 27.0 °F 59% 30.60 in 10.0 mi Calm Calm - N/A   Clear
7:00 PM 39.4 °F - 27.0 °F 61% 30.60 in 10.0 mi Calm Calm - N/A   Clear
7:20 PM 38.7 °F - 27.1 °F 63% 30.62 in 10.0 mi Calm Calm - N/A   Clear
7:40 PM 37.6 °F - 28.4 °F 69% 30.62 in 10.0 mi Calm Calm - N/A   Clear
8:00 PM 37.2 °F - 28.9 °F 72% 30.62 in 10.0 mi Calm Calm - N/A   Clear
8:20 PM 36.5 °F - 30.7 °F 80% 30.62 in 10.0 mi Calm Calm - N/A   Clear
8:40 PM 36.3 °F - 30.6 °F 80% 30.62 in 10.0 mi Calm Calm - N/A   Clear
9:00 PM 36.9 °F - 31.6 °F 81% 30.62 in 10.0 mi Calm Calm - N/A   Clear
9:20 PM 37.8 °F - 30.4 °F 75% 30.63 in 10.0 mi Calm Calm - N/A   Clear
9:40 PM 37.9 °F - 30.7 °F 75% 30.65 in 10.0 mi Calm Calm - N/A   Clear
10:00 PM 37.0 °F - 31.1 °F 79% 30.63 in 10.0 mi Calm Calm - N/A   Clear
10:20 PM 37.6 °F - 31.5 °F 79% 30.64 in 10.0 mi Calm Calm - N/A   Clear
10:40 PM 36.5 °F - 31.6 °F 83% 30.63 in 10.0 mi Calm Calm - N/A   Clear
11:00 PM 36.0 °F - 31.8 °F 85% 30.63 in 10.0 mi Calm Calm - N/A   Clear
11:20 PM 36.0 °F - 32.0 °F 86% 30.63 in 10.0 mi Calm Calm - N/A   Clear
11:40 PM 35.8 °F - 31.8 °F 86% 30.62 in 10.0 mi Calm Calm - N/A   Clear